Back to catalog

EPIC ATHENA

AliveScienceSSO
NORAD 64871·PAYLOAD·🇺🇸 United States

Launched Jul 23, 2025 from Vandenberg Space Force Base

Loading…

Next Passes (next 24 hours)

TLE

FreshSource: Space-Track

Epoch: Sep 14, 2026, 14:25 UTC

1 64871U 25154C   26257.60100059  .00001416  00000-0  13682-3 0  9991
2 64871  97.6583 319.2652 0005401 317.2392  42.8408 14.94364998 62361

Track EPIC ATHENA in real time with AllMySat

Download on the App Store